Regional Weather Roundup
Issued by NWS Charleston, WV

Home | Current Version | Previous Version | Text Only | Print | Product List | Glossary On
Versions: 1 2 3 4 5 6 7 8 9 10 11 12 13 14 15 16 17 18 19 20 21 22 23 24 25 26 27
000
ASUS41 KRLX 231310
RWRRLX
West Virginia Regional Weather Roundup
National Weather Service Charleston WV
900 AM EDT WED APR 23 2014

Note: "fair" indicates few or no clouds below 12,000 feet with no
significant weather and/or obstructions to visibility.

WVZ003-231400-
Northern Panhandle of West Virginia

CITY           SKY/WX    TMP DP  RH WIND       PRES   REMARKS
WHEELING       CLOUDY    40  30  67 NW16G24   29.97R
$$

WVZ009-231400-
Northwest West Virginia

CITY           SKY/WX    TMP DP  RH WIND       PRES   REMARKS
PARKERSBURG    PTSUNNY   46  30  53 NW6       30.03R
$$

WVZ006-231400-
Western West Virginia

CITY           SKY/WX    TMP DP  RH WIND       PRES   REMARKS
HUNTINGTON     SUNNY     45  31  58 N7        30.04R
$$

WVZ015-231400-
West Central West Virginia

CITY           SKY/WX    TMP DP  RH WIND       PRES   REMARKS
CHARLESTON     MOSUNNY   46  33  60 NW10G17   30.01R
$$

WVZ031-231400-
North Central West Virginia

CITY           SKY/WX    TMP DP  RH WIND       PRES   REMARKS
CLARKSBURG     CLOUDY    44  30  57 NW16G22   29.96R
MORGANTOWN     CLOUDY    45  31  58 NW6       29.95S
$$

WVZ035-042-045-231400-
South Central West Virginia

CITY           SKY/WX    TMP DP  RH WIND       PRES   REMARKS
BECKLEY        PTSUNNY   40  30  67 W15       29.95R
BLUEFIELD      MOSUNNY   44  30  57 NW10G20   29.94R
LEWISBURG      PTSUNNY   42  28  58 NW6       29.91R
$$

WVZ047-231400-
Northern Mountains of West Virginia

CITY           SKY/WX    TMP DP  RH WIND       PRES   REMARKS
ELKINS         CLOUDY    42  30  62 NW13G21   29.93R
$$

WVZ052-231400-
Eastern Panhandle of West Virginia

CITY           SKY/WX    TMP DP  RH WIND       PRES   REMARKS
MARTINSBURG    CLOUDY    47  30  51 NW22G29   29.85R
PETERSBURG     CLOUDY    52  35  52 NW10G24   29.91R
$$



USA.gov is the U.S. government's official web portal to all federal, state and local government web resources and services.